EHI
0 0 0 0 0 0 0 0 0 0 0 0 0 0 0 0 0 0 0 0 0 0 0 0 0 0 0 0 0 0 0 0 0 0 0 0 0 0 0 0 0 0 0
0 0 0 0 0 0 0 0 0 0 0 0 0 0 0 0 0 0 0 0 0 0 0 0 0 0 0 0 0 0 0 0 0 0 0 0 0 0 0 0 0 0 0
0 0 0 0 0 0 0 0 0 0 0 0 0 0 0 0 0 0 0 0 0 0 0 0 0 0 0 0 0 0 0 0 0 0 0 0 0 0 0 0 0 0 0
0 0 0 0 0 0 0 0 0 0 0 0 0 0 0 0 0 0 0 0 0 0 0 0 0 0 0 0 0 0 0 0 0 0 0 0 0 0 0 0 0 0 0
0 0 0 0 0 0 0 0 0 0 0 0 0 0 0 0 0 0 0 0 0 0 0 0 0 0 0 0 0 0 0 0 0 0 0 0 0 0 0 0 0 0 0
0 0 0 0 0 0 0 0 0 0 0 0 0 0 0 0 0 0 0 0 0 0 0 0 0 0 0 0 0 0 0 0 0 0 0 0 0 0 0 0 0 0 0
0 0 0 0 0 0 0 0 0 0 0 0 0 0 0 0 0 0 0 0 0 0 0 0 0 0 0 0 0 0 0 0 0 0 0 0 0 0 0 0 0 0 0
0 0 0 0 0 0 0 0 0 0 0 0 0 0 0 0 0 0 0 0 0 0 0 0 0 0 0 0 0 0 0 0 0 0 0 0 0 0 0 0 0 0 0
0 0 0 0 0 0 0 0 0 0 0 0 0 0 0 0 0 0 0 0 0 0 0 0 0 0 0 0 0 0 0 0 0 0 0 0 0 0 0 0 0 0 0
0 0 0 0 0 0 0 0 0 0 0 0 0 0 0 0 0 0 0 0 0 0 0 0 0 0 0 0 0 0 0 0 0 0 0 0 0 0 0 0 0 0 0
0 0 0 0 0 0 0 0 0 0 0 0 0 0 0 0 0 0 0 0 0 0 0 0 0 0 0 0 0 0 0 0 0 0 0 0 0 0 0 0 0 0 0
0 0 0 0 0 0 0 0 0 0 0 0 0 0 0 0 0 0 0 0 0 0 0 0 0 0 0 0 0 0 0 0 0 0 0 0 0 0 0 0 0 0 0
0 0 0 0 0 0 0 0 0 0 0 0 0 0 0 0 0 0 0 0 0 0 0 0 0 0 0 0 0 0 0 0 0 0 0 0 0 0 0 0 0 0 0
0 0 0 0 0 0 0 0 0 0 0 0 0 0 0 0 0 0 0 0 0 0 0 0 0 0 0 0 0 0 0 0 0 0 0 0 0 0 0 0 0 0 0
0 0 0 0 0 0 0 0 0 0 0 0 0 0 0 0 0 0 0 0 0 0 0 0 0 0 0 0 0 0 0 0 0 0 0 0 0 0 0 0 0 0 0
0 0 0 0 0 0 0 0 0 0 0 0 0 0 0 0 0 0 0 0 0 0 0 0 0 0 0 0 0 0 0 0 0 0 0 0 0 0 0 0 0 0 0
0 0 0 0 0 0 0 0 0 0 0 0 0 0 0 0 0 0 0 0 0 0 0 0 0 0 0 0 0 0 0 0 0 0 0 0 0 0 0 0 0 0 0
0 0 0 0 0 0 0 0 0 0 0 0 0 0 0 0 0 0 0 0 0 0 0 0 0 0 0 0 0 0 0 0 0 0 0 0 0 0 0 0 0 0 0
0 0 0 0 0 0 0 0 0 0 0 0 0 0 0 0 0 0 0 0 0 0 0 0 0 0 0 0 0 0 0 0 0 0 0 0 0 0 0 0 0 0 0
0 0 0 0 0 0 0 0 0 0 0 0 0 0 0 0 0 0 0 0 0 0 0 0 0 0 0 0 0 0 0 0 0 0 0 0 0 0 0 0 0 0 0
0 0 0 0 0 0 0 0 0 0 0 0 0 0 0 0 0 0 0 0 0 0 0 0 0 0 0 0 0 0 0 0 0 0 0 0 0 0 0 0 0 0 0
0 0 0 0 0 0 0 0 0 0 0 0 0 0 0 0 0 0 0 0 0 0 0 0 0 0 0 0 0 0 0 0 0 0 0 0 0 0 0 0 0 0 0
0 0 0 0 0 0 0 0 0 0 0 0 0 0 0 0 0 0 0 0 0 0 0 0 0 0 0 0 0 0 0 0 0 0 0 0 0 0 0 0 0 0 0
0 0 0 0 0 0 0 0 0 0 0 0 0 0 0 0 0 0 0 0 0 0 0 0 0 0 0 0 0 0 0 0 0 0 0 0 0 0 0 0 0 0 0
0 0 0 0 0 0 0 0 0 0 0 0 0 0 0 0 0 0 0 0 0 0 0 0 0 0 0 0 0 0 0 0 0 0 0 0 0 0 0 0 0 0 0
0 0 0 0 0 0 0 0 0 0 0 0 0 0 0 0 0 0 0 0 0 0 0 0 0 0 0 0 0 0 0 0 0 0 0 0 0 0 0 0 0 0 0
Wind_Speed
3 3 3 4 5 4 4 4 3 4 5 5 5 5 5 6 5 5 4 11 14 15 16 17 16 15 14 15 15 15 14 13 12 10 9 9 8 8 8 8 10 12 14
4 4 5 5 4 4 4 4 4 4 4 3 5 5 4 5 4 5 4 7 14 17 18 18 18 17 17 16 15 15 15 14 13 10 8 7 8 8 9 9 9 8 9
6 6 5 5 3 3 4 3 3 3 5 5 5 4 3 4 4 5 5 4 6 13 18 19 19 18 17 17 17 16 15 15 14 11 9 9 9 9 9 10 11 11 11
8 6 5 4 3 4 4 4 4 4 5 5 5 4 3 2 3 4 4 5 4 5 10 18 19 18 17 17 17 16 15 14 14 12 10 10 10 10 10 11 12 12 13
8 7 5 4 4 5 5 4 4 4 4 6 7 4 3 2 2 4 4 5 5 4 4 11 17 17 17 16 16 17 16 16 15 13 11 11 12 12 12 13 13 13 14
8 7 5 5 5 5 5 4 4 4 3 4 6 6 3 2 1 3 3 3 3 4 5 5 6 10 16 15 16 18 18 18 16 13 13 13 12 12 14 15 15 15 15
7 7 6 5 5 5 5 5 4 5 4 4 4 6 4 3 2 2 2 1 3 5 5 7 7 6 6 12 15 19 19 19 17 14 15 15 14 14 16 17 18 18 19
7 7 7 5 5 5 6 7 5 3 3 4 3 3 5 6 5 3 3 2 5 5 7 10 9 8 6 4 10 19 19 18 16 16 17 17 17 18 19 21 21 22 22
7 7 7 5 5 6 5 5 4 4 3 3 4 4 3 4 5 5 5 3 4 4 5 5 8 8 9 6 6 12 18 17 16 17 19 19 20 21 23 24 25 24 24
7 6 6 6 6 5 5 4 4 3 3 2 3 2 1 3 3 6 4 3 3 5 5 7 9 9 9 7 10 17 18 17 18 20 22 23 24 26 27 27 27 26 25
6 6 6 6 6 5 5 5 4 3 2 1 1 2 2 2 1 3 7 5 5 4 4 7 7 7 8 7 6 11 17 19 21 23 24 27 28 29 29 28 28 27 27
4 5 6 6 5 5 4 3 2 2 1 1 0 1 1 1 2 3 6 9 9 6 7 7 6 5 6 6 9 18 20 22 24 26 28 29 30 30 29 29 29 29 29
3 4 4 5 4 4 3 3 2 2 1 1 1 2 2 2 2 3 6 9 10 6 5 3 4 5 7 6 8 21 21 25 27 29 30 31 31 30 29 30 30 31 32
4 4 5 5 4 3 3 2 1 1 1 2 3 3 3 3 3 3 4 7 12 6 4 5 4 5 4 5 12 23 14 26 29 31 32 32 31 29 30 31 32 33 34
5 6 5 4 3 3 2 2 2 3 3 2 3 4 3 4 4 4 4 4 6 11 11 5 3 3 5 6 13 10 9 21 30 32 31 30 30 31 33 35 35 36 36
5 5 5 4 3 3 3 2 2 3 3 3 3 4 5 4 4 4 5 5 6 10 14 6 7 7 8 10 18 13 11 27 29 29 29 30 33 35 36 36 36 35 34
5 5 4 3 2 3 3 2 3 4 4 5 5 5 7 6 5 5 5 5 7 8 14 14 9 8 9 10 11 9 10 10 12 23 29 33 35 35 35 34 34 33 33
5 5 4 3 3 3 3 3 4 5 5 6 7 7 8 7 7 5 5 7 8 8 11 17 13 11 11 11 11 10 11 10 9 23 31 32 32 32 32 32 31 32 33
5 5 4 3 3 3 4 4 4 5 5 6 6 7 8 8 8 7 8 8 8 9 8 12 15 13 11 10 10 11 10 10 13 18 25 26 29 31 32 32 33 34 33
5 4 3 3 3 4 4 5 5 4 4 5 6 7 7 8 9 9 9 8 8 8 9 11 13 12 11 9 8 11 13 8 10 12 17 22 27 31 31 32 32 32 32
5 4 3 3 3 4 4 6 4 3 3 5 6 7 8 12 14 12 11 9 9 10 11 12 11 11 11 10 11 11 15 14 10 9 12 12 12 11 13 22 27 29 31
4 3 3 4 4 4 10 13 10 3 3 5 7 7 8 10 14 20 24 24 21 15 12 9 11 14 15 13 12 13 14 16 16 7 9 13 10 12 10 9 21 30 31
3 3 3 4 4 7 13 15 15 7 4 6 8 8 9 10 16 11 17 21 15 21 23 17 15 14 16 15 15 16 15 16 17 13 13 16 11 13 11 14 27 31 32
3 2 3 4 5 7 14 16 17 7 5 7 9 9 10 10 12 16 14 10 9 10 16 12 11 13 13 12 13 15 16 17 15 11 10 15 13 13 14 12 24 30 32
2 2 3 5 5 8 14 17 17 5 5 8 9 9 10 10 19 25 15 10 11 11 17 21 23 23 27 26 21 13 12 13 15 13 8 10 13 15 14 13 16 26 28
2 4 5 5 5 6 14 18 18 5 6 7 6 7 13 17 22 25 13 9 12 13 13 13 15 18 16 17 21 13 11 13 14 12 6 6 11 12 11 8 8 9 14
Wind_Direction
123 105 79 69 61 59 62 54 46 43 32 18 14 18 12 355 356 356 357 21 31 28 33 31 26 21 20 25 27 29 29 26 26 29 30 27 19 3 339 311 292 286 283
122 102 83 71 60 57 61 57 49 45 31 9 3 6 8 359 4 10 12 22 30 31 31 29 24 18 18 13 11 15 15 10 4 3 10 16 8 359 357 356 343 321 305
106 97 88 76 61 56 62 56 40 43 27 8 349 349 7 5 20 21 23 28 21 31 31 29 22 17 13 7 5 2 3 2 359 357 1 358 352 350 349 350 349 346 338
103 99 94 83 70 59 49 45 28 26 17 356 333 331 358 356 29 33 41 41 27 34 27 26 20 13 7 3 360 354 353 353 350 348 349 344 341 338 335 330 329 327 326
102 100 92 81 68 58 42 34 34 28 8 348 326 325 354 344 34 38 48 47 32 35 30 18 15 5 357 352 352 348 344 338 328 323 324 322 319 318 317 314 312 311 311
101 98 89 76 68 62 42 29 26 21 2 339 326 324 330 337 7 30 37 40 25 26 24 10 7 350 348 341 344 340 335 328 319 318 317 312 312 313 313 311 308 306 303
99 95 93 79 72 72 59 38 30 18 360 352 349 331 333 353 331 334 12 25 17 17 11 2 351 335 325 328 332 331 327 320 312 312 312 310 312 313 310 308 306 304 301
99 96 93 90 84 81 61 46 40 28 4 11 11 354 348 342 340 335 344 13 17 12 5 347 328 317 309 296 309 323 319 311 305 308 306 306 308 309 308 306 304 301 299
89 94 97 97 83 79 71 57 46 50 13 356 31 40 12 318 305 313 327 344 1 6 334 317 312 307 302 297 296 309 306 300 298 300 301 302 303 303 302 301 299 296 294
89 93 94 89 82 79 75 62 59 52 53 12 348 14 249 246 290 311 300 298 328 316 297 314 305 295 290 288 288 302 299 291 294 298 300 301 301 300 298 295 293 292 292
83 87 88 85 82 79 77 66 60 59 79 81 345 317 309 295 252 278 291 303 304 273 285 285 280 284 289 288 285 288 289 295 299 300 300 300 299 297 295 293 292 291 290
80 81 85 84 83 79 74 68 62 56 53 42 288 250 250 282 296 279 286 305 304 289 280 272 274 285 290 290 296 302 300 302 302 301 299 297 295 295 295 295 294 292 290
101 93 86 81 76 77 78 67 50 17 340 330 295 267 249 241 241 258 287 304 301 290 269 256 271 286 295 306 310 306 302 303 303 301 299 297 296 295 296 295 295 293 291
122 109 93 85 79 72 65 47 25 326 317 305 285 274 258 251 242 252 271 303 310 296 244 267 271 262 292 305 296 302 302 301 301 300 298 296 296 296 297 295 293 291 290
113 100 92 85 69 52 35 15 345 324 315 289 277 269 250 245 240 243 250 262 285 300 304 267 259 283 290 285 290 293 284 292 296 295 295 295 297 296 294 292 290 289 287
97 98 88 78 55 31 12 359 329 313 310 294 272 268 259 247 242 243 246 256 257 275 289 287 291 282 279 290 293 292 285 292 296 294 293 294 293 291 290 290 288 287 284
100 95 88 72 41 17 359 349 321 310 313 303 296 286 276 267 254 249 250 257 261 266 282 294 292 291 282 277 285 276 275 274 276 284 288 289 289 289 289 288 287 286 286
98 92 82 61 29 5 349 336 317 319 310 302 299 298 290 287 268 264 263 262 264 264 277 293 300 299 291 288 285 279 288 284 271 281 287 289 291 291 289 287 287 289 289
91 78 69 46 15 348 327 314 308 307 302 300 301 299 294 293 287 279 272 272 271 278 278 288 295 296 293 292 293 291 284 275 279 285 290 291 290 290 287 288 290 289 288
87 71 55 33 360 328 314 307 302 296 305 311 305 298 295 292 284 279 281 276 284 289 286 286 288 293 297 298 296 299 298 282 282 287 287 287 287 289 288 289 289 289 289
81 66 45 15 352 329 309 302 287 284 302 306 299 293 294 302 308 308 310 307 303 298 298 299 305 310 305 306 304 303 301 301 289 282 283 282 281 275 276 281 285 285 284
65 48 24 360 343 326 314 318 321 290 281 294 294 290 291 298 305 317 315 311 310 313 315 307 303 302 304 304 303 301 303 302 300 292 284 291 285 281 277 268 279 283 283
51 29 2 338 315 309 321 324 321 321 286 288 290 293 303 307 314 299 300 306 312 312 311 308 304 303 303 304 302 301 299 296 296 301 299 294 290 287 284 283 287 286 286
35 2 325 319 320 321 330 326 321 325 290 283 286 289 292 294 295 303 307 311 297 299 304 304 293 295 301 300 297 300 299 297 292 288 284 290 294 290 289 283 285 284 283
9 325 321 330 326 316 326 324 325 302 286 286 288 292 298 294 304 316 321 309 306 309 314 311 310 310 309 309 308 307 304 303 301 300 290 281 291 295 290 283 279 282 284
343 337 330 322 313 306 319 325 325 297 292 291 287 284 306 315 316 322 321 314 316 312 312 316 315 309 304 301 307 306 303 300 300 301 289 279 295 304 297 269 261 271 276